Home   Weather   Dallas   Past weeks

Flag for USA Past Weather in Dallas, Texas, USA — Yesterday and Last 2 Weeks

Now
36 °F

Passing clouds.


Feels Like: 32 °F
Forecast: 34 / 51 °F
Wind: 5 mph from Southeast

Location: Dallas Love Field

Current Time: Dec 9, 2016 at 11:04:11 pm

Latest Report: Dec 9, 2016 at 9:53 pm


Visibility: 10 mi

Pressure: 30.52 "Hg

Humidity: 57%

Dew Point: 22 °F

Location of DallasLocation

Past Weather in Dallas — Graph

°F

Dallas Temperature Yesterday

Maximum temperature yesterday: 40 °F (at 12:53 am)
Minimum temperature yesterday: 32 °F (at 9:53 pm)
Average temperature yesterday: 36 °F

High & Low Weather Summary for the Past Weeks

 TemperatureHumidityPressure
High73 °F (Nov 29, 1:53 pm)96% (Dec 5, 9:59 pm)30.69 "Hg (Dec 5, 9:59 pm)
Low27 °F (Dec 9, 4:53 am)19% (Dec 1, 12:53 pm)29.42 "Hg (Nov 28, 2:53 pm)
Average52 °F63%30.06 "Hg
* Reported Nov 24 9:53 pm — Dec 9 9:53 pm, Dallas, Weather by CustomWeather, © 2016

Note: Actual official high and low records may vary slightly from our data, if they occured in-between our weather recording intervals... More about our weather records

Advertising

Dallas Weather History for the Previous 24 Hours

Scroll right to see more
 ConditionsComfort  
Time TempWeatherWind HumidityBarometerVisibility
9:53 pm
Fri, Dec 9
36 °FPassing clouds.5 mph57%30.52 "Hg10 mi
8:53 pm36 °FPassing clouds.5 mph57%30.52 "Hg10 mi
7:53 pm36 °FPassing clouds.6 mph54%30.52 "Hg10 mi
6:53 pm38 °FPassing clouds.6 mph46%30.53 "Hg10 mi
5:53 pm38 °FPassing clouds.8 mph45%30.50 "Hg10 mi
4:53 pm39 °FPartly sunny.6 mph39%30.53 "Hg10 mi
3:53 pm39 °FPartly sunny.5 mph36%30.53 "Hg10 mi
2:53 pm39 °FOvercast.3 mph36%30.54 "Hg10 mi
1:53 pm38 °FOvercast.3 mph37%30.56 "Hg10 mi
12:53 pm37 °FOvercast.No wind41%30.59 "Hg10 mi
11:53 am36 °FOvercast.No wind38%30.64 "Hg10 mi
10:53 am35 °FOvercast.8 mph38%30.66 "Hg10 mi
9:53 am34 °FPartly sunny.7 mph48%30.68 "Hg10 mi
8:53 am34 °FPartly sunny.7 mph44%30.67 "Hg10 mi
7:53 am32 °FOvercast.7 mph47%30.67 "Hg10 mi
6:53 am32 °FPassing clouds.6 mph47%30.66 "Hg10 mi
5:53 am30 °FPassing clouds.3 mph59%30.66 "Hg10 mi
4:53 am27 °FPassing clouds.5 mph63%30.66 "Hg10 mi
3:53 am29 °FPassing clouds.6 mph61%30.66 "Hg10 mi
2:53 am28 °FPassing clouds.7 mph61%30.68 "Hg10 mi
1:53 am29 °FPassing clouds.7 mph61%30.68 "Hg10 mi
12:53 am30 °FClear.3 mph56%30.68 "Hg10 mi
11:53 pm
Thu, Dec 8
32 °FClear.5 mph50%30.69 "Hg10 mi
Weather by CustomWeather, © 2016

See weather overviewHow to use our weather pages